Location: ???????
(54.9996°N, 37.9529°E)
Time: 12:22:40
(UTC+00:00)

CZ-2D R/B - Pass Details

Date: 14 April 2024
Orbit: 791 x 842 km, 98.8° (Epoch: 18 May)

Event Time Altitude Azimuth Distance (km) Brightness Sun altitude
Rises 00:53:14 0° 12° (NNE) 3,337 6.2 -12.6°
Reaches altitude 10° 00:55:44 10° 4° (N) 2,410 5.2 -12.4°
Maximum altitude 01:00:30 35° 301° (WNW) 1,308 3.0 -11.8°
Enters shadow 01:04:20 15° 243° (WSW) 2,094 3.6 -11.4°
